Location: Claremont
(33.9858°S, 18.4575°E)
Time: 06:30:56
(UTC+00:00)

ATLAS 3B R/B - Pass Details

Date: 03 March 2021
Orbit: 1006 x 1189 km, 63.8° (Epoch: 13 April)

Event Time Altitude Azimuth Distance (km) Brightness Sun altitude
Rises 17:43:26 0° 205° (SSW) 3,959 6.3 -5.7°
Reaches altitude 10° 17:46:21 10° 198° (SSW) 2,967 5.5 -6.3°
Maximum altitude 17:52:58 43° 127° (SE) 1,456 3.2 -7.6°
Drops below altitude 10° 17:59:16 10° 56° (ENE) 2,828 4.3 -8.9°
Enters shadow 17:59:41 - 55° (NE) 2,966 4.4 -8.9°
